Regional Weather Roundup
Issued by NWS Green Bay, WI

Home | Current Version | Previous Version | Graphics & Text | Print | Product List | Glossary Off
Versions: 1 2 3 4 5 6 7 8 9 10 11 12 13 14 15 16 17 18 19 20 21 22 23 24 25 26 27 28 29 30 31 32 33 34 35 36 37 38 39 40 41 42 43 44 45 46 47 48 49 50

000
ASUS43 KGRB 281859
RWRGRB

NORTH-CENTRAL AND NORTHEAST WISCONSIN REGIONAL WEATHER ROUNDUP
NATIONAL WEATHER SERVICE GREEN BAY WI
100 PM CST WED JAN 28 2015

WIZ005-009-010>012-018-019-282000-
NORTH CENTRAL WISCONSIN

CITY           SKY/WX    TMP DP  RH WIND       PRES   REMARKS
IRONWOOD       CLOUDY    28  23  80 S7        29.90F
MANITOWISH WTR NOT AVBL
ARBOR VITAE    NOT AVBL
EAGLE RIVER    NOT AVBL
LAND O LAKES   NOT AVBL
RHINELANDER    PTSUNNY   27  20  75 S10G16    29.98F
PHILLIPS       NOT AVBL
ANTIGO         NOT AVBL
TOMAHAWK       NOT AVBL
MERRILL        NOT AVBL
$$

WIZ013-073-282000-
NORTHEAST WISCONSIN

CITY           SKY/WX    TMP DP  RH WIND       PRES   REMARKS
IRON MOUNTAIN  CLOUDY    28  19  69 S13       30.03F
MARINETTE      PTSUNNY   30  21  69 SW12      30.11F
$$

WIZ017-030-035>037-045-282000-
CENTRAL WISCONSIN

CITY           SKY/WX    TMP DP  RH WIND       PRES   REMARKS
MEDFORD        NOT AVBL
WAUSAU         PTSUNNY   27  20  75 S14       30.00F
MOSINEE        NOT AVBL
MARSHFIELD     CLOUDY    25  22  88 SE14      30.00F FOG
WISC RAPIDS    CLOUDY    26  21  81 S9        30.04F HAZE
STEVENS POINT  NOT AVBL
WAUPACA        NOT AVBL
SHAWANO        NOT AVBL
CLINTONVILLE   NOT AVBL
$$

WIZ038-039-048-051-282000-
FOX VALLEY

CITY           SKY/WX    TMP DP  RH WIND       PRES   REMARKS
NWS GREEN BAY  PTSUNNY   31  23  72 S10       30.11F
APPLETON       CLOUDY    30  19  64 S12       30.11F
OSHKOSH        PTSUNNY   30  21  69 S14G22    30.10F
FOND DU LAC    PTSUNNY   30  20  66 S13       30.10F
$$

WIZ022-050-052-282000-
EAST CENTRAL WISCONSIN

CITY           SKY/WX    TMP DP  RH WIND       PRES   REMARKS
STURGEON BAY   CLOUDY    30  23  74 S14       30.14F
MANITOWOC      CLOUDY    30  27  86 S18       30.13F
SHEBOYGAN      PTSUNNY   31  23  72 S14       30.13F
$$

LMZ563-521-522-541>543-282000-
LAKESHORE

STATION/POSITION TIME  TEMP    WIND        PRES    VSBY  WAVE
                       AIR SEA DIR/SP/G                  HT/PER
                 (UTC) (F)     (DEG/KT/KT) (MB)    (MI)  (FT/S)
SHEBOYGAN LKSHOR 1800   29     180/ 21/ 23 1022.2F
KEWAUNEE LKSHORE 1800   30     190/ 13/ 16 1019.9F
NORTHPORT PIER   1800   29     150/  4/  8 1021.3F
SISTER BAY LKSHO 1800   32     180/ 11/ 12   N/A
CHAMBERS ISLAND  1800   30     170/  5/  9 1021.3F
MENOMINEE LKSHOR 1800   28     150/  6     1021.2F
$$



USA.gov is the U.S. government's official web portal to all federal, state and local government web resources and services.